| time (UTC) | temp F | wind direction | speed knots | gust knots | rain 1hr in | rain 24hr in | rain mn in | humidity % | barometer mb |
| 20260505200505 | 62 | 168 | 5.2 | 11.3 | 0.00 | 0.00 | 0.00 | 37 | 1004.4 |
| 20260505200005 | 62 | 164 | 6.1 | 9.6 | 0.00 | 0.00 | 0.00 | 37 | 1004.5 |
| 20260505195506 | 62 | 184 | 6.1 | 10.4 | 0.00 | 0.00 | 0.00 | 37 | 1004.5 |
| 20260505195007 | 62 | 252 | 4.3 | 11.3 | 0.00 | 0.00 | 0.00 | 38 | 1004.5 |
| 20260505194505 | 62 | 146 | 3.5 | 8.7 | 0.00 | 0.00 | 0.00 | 37 | 1004.5 |
| 20260505194005 | 62 | 255 | 3.5 | 8.7 | 0.00 | 0.00 | 0.00 | 37 | 1004.6 |
| 20260505193506 | 62 | 162 | 3.5 | 8.7 | 0.00 | 0.00 | 0.00 | 37 | 1004.6 |
| 20260505193005 | 62 | 227 | 2.6 | 6.1 | 0.00 | 0.00 | 0.00 | 37 | 1004.6 |
| 20260505192505 | 62 | 197 | 3.5 | 7.8 | 0.00 | 0.00 | 0.00 | 37 | 1004.6 |
| 20260505192006 | 62 | 177 | 6.1 | 9.6 | 0.00 | 0.00 | 0.00 | 37 | 1004.6 |
| 20260505191505 | 62 | 189 | 6.1 | 10.4 | 0.00 | 0.00 | 0.00 | 37 | 1004.6 |
| 20260505191006 | 62 | 171 | 6.1 | 9.6 | 0.00 | 0.00 | 0.00 | 37 | 1004.7 |
| 20260505190506 | 62 | 256 | 3.5 | 6.1 | 0.00 | 0.00 | 0.00 | 38 | 1004.7 |
| 20260505190005 | 62 | 274 | 4.3 | 6.1 | 0.00 | 0.00 | 0.00 | 38 | 1004.7 |
| 20260505185505 | 62 | 188 | 5.2 | 11.3 | 0.00 | 0.00 | 0.00 | 37 | 1004.6 |
| 20260505185005 | 62 | 213 | 3.5 | 7.8 | 0.00 | 0.00 | 0.00 | 38 | 1004.8 |
| 20260505184505 | 62 | 199 | 7.0 | 9.6 | 0.00 | 0.00 | 0.00 | 38 | 1004.8 |
| 20260505184005 | 62 | 192 | 7.0 | 11.3 | 0.00 | 0.00 | 0.00 | 38 | 1004.7 |
| 20260505183505 | 61 | 190 | 7.0 | 13.0 | 0.00 | 0.00 | 0.00 | 38 | 1004.9 |
| 20260505183005 | 61 | 201 | 7.8 | 12.2 | 0.00 | 0.00 | 0.00 | 39 | 1004.8 |
| 20260505182505 | 61 | 196 | 7.0 | 11.3 | 0.00 | 0.00 | 0.00 | 39 | 1004.9 |
| 20260505182005 | 61 | 193 | 7.0 | 12.2 | 0.00 | 0.00 | 0.00 | 39 | 1004.9 |
| 20260505181506 | 61 | 185 | 7.8 | 12.2 | 0.00 | 0.00 | 0.00 | 39 | 1005.0 |
| 20260505181006 | 60 | 194 | 7.8 | 11.3 | 0.00 | 0.00 | 0.00 | 39 | 1005.0 |
| 20260505180506 | 60 | 195 | 8.7 | 13.9 | 0.00 | 0.00 | 0.00 | 38 | 1004.9 |
| 20260505180005 | 60 | 192 | 7.0 | 13.0 | 0.00 | 0.00 | 0.00 | 38 | 1005.1 |
| 20260505175505 | 60 | 186 | 7.0 | 12.2 | 0.00 | 0.00 | 0.00 | 38 | 1005.3 |
| 20260505175005 | 60 | 187 | 7.8 | 10.4 | 0.00 | 0.00 | 0.00 | 38 | 1005.3 |
| 20260505174505 | 60 | 184 | 7.8 | 12.2 | 0.00 | 0.00 | 0.00 | 37 | 1005.3 |
| 20260505174005 | 60 | 190 | 9.6 | 19.1 | 0.00 | 0.00 | 0.00 | 37 | 1005.2 |
| 20260505173505 | 59 | 183 | 10.4 | 16.5 | 0.00 | 0.00 | 0.00 | 37 | 1005.3 |
| 20260505173006 | 59 | 190 | 9.6 | 14.8 | 0.00 | 0.00 | 0.00 | 38 | 1005.4 |
| 20260505172506 | 59 | 191 | 10.4 | 20.0 | 0.00 | 0.00 | 0.00 | 38 | 1005.3 |
| 20260505172005 | 59 | 183 | 9.6 | 19.1 | 0.00 | 0.00 | 0.00 | 38 | 1005.3 |
| 20260505171506 | 59 | 179 | 13.9 | 20.9 | 0.00 | 0.00 | 0.00 | 39 | 1005.2 |
| 20260505171005 | 58 | 183 | 11.3 | 20.0 | 0.00 | 0.00 | 0.00 | 40 | 1005.3 |
| 20260505170505 | 58 | 181 | 10.4 | 19.1 | 0.00 | 0.00 | 0.00 | 39 | 1005.3 |
| 20260505170005 | 58 | 185 | 10.4 | 14.8 | 0.00 | 0.00 | 0.00 | 39 | 1005.4 |
| 20260505165505 | 58 | 175 | 9.6 | 13.9 | 0.00 | 0.00 | 0.00 | 40 | 1005.5 |
| 20260505165005 | 57 | 172 | 11.3 | 14.8 | 0.00 | 0.00 | 0.00 | 41 | 1005.7 |
| 20260505164506 | 57 | 169 | 11.3 | 15.6 | 0.00 | 0.00 | 0.00 | 41 | 1005.8 |
| 20260505164006 | 56 | 172 | 10.4 | 14.8 | 0.00 | 0.00 | 0.00 | 42 | 1005.9 |
| 20260505163506 | 56 | 173 | 11.3 | 15.6 | 0.00 | 0.00 | 0.00 | 44 | 1006.0 |
| 20260505163007 | 56 | 178 | 9.6 | 14.8 | 0.00 | 0.00 | 0.00 | 45 | 1006.1 |
| 20260505162505 | 56 | 171 | 10.4 | 14.8 | 0.00 | 0.00 | 0.00 | 44 | 1006.0 |
| 20260505162005 | 56 | 171 | 8.7 | 12.2 | 0.00 | 0.00 | 0.00 | 44 | 1006.2 |
| 20260505161505 | 56 | 175 | 10.4 | 13.9 | 0.00 | 0.00 | 0.00 | 44 | 1006.2 |
| 20260505161005 | 55 | 171 | 7.0 | 11.3 | 0.00 | 0.00 | 0.00 | 46 | 1006.3 |
| 20260505160505 | 55 | 178 | 7.0 | 11.3 | 0.00 | 0.00 | 0.00 | 46 | 1006.3 |
| 20260505153006 | 54 | 183 | 9.6 | 16.5 | 0.00 | 0.00 | 0.00 | 53 | 1006.4 |
| 20260505152505 | 54 | 180 | 9.6 | 13.9 | 0.00 | 0.00 | 0.00 | 54 | 1006.4 |
| 20260505152005 | 54 | 183 | 9.6 | 15.6 | 0.00 | 0.00 | 0.00 | 55 | 1006.5 |
| 20260505151505 | 54 | 180 | 7.8 | 11.3 | 0.00 | 0.00 | 0.00 | 57 | 1006.6 |
| 20260505151006 | 53 | 186 | 7.8 | 11.3 | 0.00 | 0.00 | 0.00 | 59 | 1006.7 |
| 20260505150506 | 53 | 188 | 8.7 | 13.0 | 0.00 | 0.00 | 0.00 | 60 | 1006.9 |
| 20260505140505 | 53 | 192 | 10.4 | 15.6 | 0.00 | 0.00 | 0.00 | 59 | 1006.7 |
| 20260505125005 | 55 | 192 | 8.7 | 13.9 | 0.00 | 0.00 | 0.00 | 54 | 1005.1 |
| 20260505124506 | 55 | 191 | 7.8 | 12.2 | 0.00 | 0.00 | 0.00 | 56 | 1005.1 |
| 20260505124006 | 55 | 195 | 8.7 | 12.2 | 0.00 | 0.00 | 0.00 | 55 | 1005.0 |
| 20260505123506 | 55 | 191 | 8.7 | 12.2 | 0.00 | 0.00 | 0.00 | 56 | 1005.0 |
| 20260505123005 | 55 | 187 | 8.7 | 13.9 | 0.00 | 0.00 | 0.00 | 56 | 1005.0 |
| 20260505122505 | 55 | 186 | 7.8 | 11.3 | 0.00 | 0.00 | 0.00 | 59 | 1005.1 |
| 20260505122005 | 55 | 188 | 7.0 | 11.3 | 0.00 | 0.00 | 0.00 | 59 | 1005.1 |
| 20260505121505 | 54 | 181 | 8.7 | 13.9 | 0.00 | 0.00 | 0.00 | 62 | 1005.3 |
| 20260505121005 | 53 | 185 | 7.8 | 10.4 | 0.00 | 0.00 | 0.00 | 66 | 1005.6 |
| 20260505120505 | 53 | 204 | 5.2 | 8.7 | 0.00 | 0.00 | 0.00 | 69 | 1005.8 |
| 20260505120006 | 53 | 205 | 5.2 | 7.8 | 0.00 | 0.00 | 0.00 | 69 | 1005.8 |
| 20260505115506 | 53 | 202 | 5.2 | 7.8 | 0.00 | 0.00 | 0.00 | 68 | 1005.8 |
| 20260505115006 | 53 | 201 | 5.2 | 8.7 | 0.00 | 0.00 | 0.00 | 67 | 1005.7 |
| 20260505114505 | 54 | 210 | 5.2 | 7.8 | 0.00 | 0.00 | 0.00 | 66 | 1005.6 |
| 20260505114005 | 54 | 216 | 6.1 | 10.4 | 0.00 | 0.00 | 0.00 | 63 | 1005.4 |
| 20260505113505 | 55 | 213 | 7.0 | 9.6 | 0.01 | 0.00 | 0.00 | 63 | 1005.3 |
| 20260505113005 | 55 | 220 | 5.2 | 11.3 | 0.00 | 0.00 | 0.00 | 61 | 1005.1 |
| 20260505112505 | 56 | 220 | 3.5 | 10.4 | 0.00 | 0.00 | 0.00 | 57 | 1004.8 |
| 20260505112005 | 56 | 249 | 4.3 | 7.0 | 0.00 | 0.00 | 0.00 | 54 | 1004.8 |
| 20260505111506 | 56 | 238 | 3.5 | 6.1 | 0.00 | 0.00 | 0.00 | 54 | 1004.9 |
| 20260505111006 | 56 | 208 | 3.5 | 5.2 | 0.00 | 0.00 | 0.00 | 56 | 1005.0 |
| 20260505110505 | 56 | 185 | 4.3 | 7.0 | 0.00 | 0.00 | 0.00 | 55 | 1005.0 |
| 20260505102006 | 56 | 156 | 7.8 | 10.4 | 0.00 | 0.00 | 0.00 | 55 | 1004.5 |
| 20260505101505 | 56 | 158 | 7.0 | 10.4 | 0.00 | 0.00 | 0.00 | 55 | 1004.6 |
| 20260505101005 | 56 | 162 | 7.8 | 9.6 | 0.00 | 0.00 | 0.00 | 55 | 1004.7 |
| 20260505100505 | 56 | 160 | 8.7 | 12.2 | 0.00 | 0.00 | 0.00 | 55 | 1004.7 |
| 20260505100005 | 56 | 168 | 8.7 | 11.3 | 0.00 | 0.00 | 0.00 | 56 | 1004.8 |
| 20260505095505 | 56 | 201 | 10.4 | 16.5 | 0.00 | 0.00 | 0.00 | 53 | 1004.8 |
| 20260505095005 | 56 | 196 | 11.3 | 15.6 | 0.01 | 0.00 | 0.00 | 54 | 1004.8 |
| 20260505094505 | 56 | 191 | 10.4 | 16.5 | 0.04 | 0.00 | 0.00 | 56 | 1004.9 |
| 20260505094006 | 56 | 197 | 12.2 | 17.4 | 0.05 | 0.00 | 0.00 | 56 | 1004.8 |
| 20260505093506 | 56 | 197 | 12.2 | 17.4 | 0.03 | 0.00 | 0.00 | 55 | 1004.7 |
| 20260505093006 | 57 | 196 | 13.0 | 20.0 | 0.01 | 0.00 | 0.00 | 53 | 1004.7 |
| 20260505092506 | 57 | 193 | 12.2 | 17.4 | 0.00 | 0.00 | 0.00 | 54 | 1004.9 |
| 20260505092005 | 57 | 194 | 12.2 | 17.4 | 0.00 | 0.00 | 0.00 | 55 | 1004.9 |
| 20260505091505 | 57 | 187 | 11.3 | 19.1 | 0.00 | 0.00 | 0.00 | 56 | 1004.9 |
| 20260505091005 | 57 | 196 | 12.2 | 17.4 | 0.00 | 0.00 | 0.00 | 54 | 1004.8 |
| 20260505090505 | 57 | 188 | 10.4 | 16.5 | 0.00 | 0.00 | 0.00 | 55 | 1004.8 |
| 20260505090005 | 57 | 192 | 13.0 | 22.6 | 0.00 | 0.00 | 0.00 | 52 | 1004.5 |
| 20260505085506 | 57 | 192 | 13.0 | 17.4 | 0.00 | 0.00 | 0.00 | 54 | 1004.5 |
| 20260505085006 | 58 | 190 | 12.2 | 18.2 | 0.00 | 0.00 | 0.00 | 54 | 1004.5 |
| 20260505084506 | 58 | 185 | 12.2 | 20.9 | 0.00 | 0.00 | 0.00 | 54 | 1004.5 |
| 20260505084005 | 58 | 180 | 10.4 | 17.4 | 0.00 | 0.00 | 0.00 | 52 | 1004.5 |
| 20260505083505 | 58 | 185 | 10.4 | 16.5 | 0.00 | 0.00 | 0.00 | 52 | 1004.5 |
| 20260505083005 | 58 | 178 | 10.4 | 17.4 | 0.00 | 0.00 | 0.00 | 53 | 1004.5 |
| 20260505082505 | 58 | 180 | 9.6 | 17.4 | 0.00 | 0.00 | 0.00 | 54 | 1004.5 |
| 20260505082005 | 58 | 179 | 12.2 | 17.4 | 0.00 | 0.00 | 0.00 | 55 | 1004.5 |
| 20260505081505 | 58 | 180 | 13.0 | 19.1 | 0.00 | 0.00 | 0.00 | 54 | 1004.4 |
| 20260505081005 | 57 | 177 | 12.2 | 17.4 | 0.00 | 0.00 | 0.00 | 55 | 1004.5 |
| 20260505080506 | 57 | 175 | 12.2 | 17.4 | 0.00 | 0.00 | 0.00 | 57 | 1004.6 |
| 20260505080006 | 57 | 173 | 13.9 | 25.2 | 0.00 | 0.00 | 0.00 | 57 | 1004.8 |
| 20260505075506 | 57 | 170 | 15.6 | 21.7 | 0.00 | 0.00 | 0.00 | 58 | 1004.8 |
| 20260505075006 | 57 | 158 | 10.4 | 14.8 | 0.00 | 0.00 | 0.00 | 59 | 1004.7 |
| 20260505074505 | 57 | 164 | 10.4 | 13.9 | 0.00 | 0.00 | 0.00 | 55 | 1004.8 |
| 20260505074005 | 57 | 160 | 10.4 | 14.8 | 0.00 | 0.00 | 0.00 | 56 | 1004.6 |
| 20260505073505 | 58 | 167 | 13.9 | 27.8 | 0.00 | 0.00 | 0.00 | 55 | 1004.6 |
| 20260505073005 | 58 | 169 | 16.5 | 27.8 | 0.00 | 0.00 | 0.00 | 53 | 1004.2 |
| 20260505072505 | 58 | 165 | 10.4 | 22.6 | 0.00 | 0.00 | 0.00 | 53 | 1004.4 |
| 20260505072005 | 58 | 169 | 13.9 | 25.2 | 0.00 | 0.00 | 0.00 | 53 | 1004.4 |
| 20260505071506 | 58 | 175 | 11.3 | 16.5 | 0.00 | 0.00 | 0.00 | 52 | 1004.2 |
| 20260505071006 | 58 | 176 | 10.4 | 14.8 | 0.00 | 0.00 | 0.00 | 51 | 1004.3 |
| 20260505070506 | 58 | 171 | 12.2 | 16.5 | 0.00 | 0.00 | 0.00 | 53 | 1004.3 |
| 20260505070005 | 58 | 170 | 12.2 | 17.4 | 0.00 | 0.00 | 0.00 | 52 | 1004.2 |
| 20260505065505 | 58 | 168 | 14.8 | 19.1 | 0.00 | 0.00 | 0.00 | 54 | 1004.3 |
| 20260505065005 | 57 | 174 | 13.0 | 18.2 | 0.00 | 0.00 | 0.00 | 54 | 1004.3 |
| 20260505064505 | 57 | 176 | 13.0 | 20.0 | 0.00 | 0.00 | 0.00 | 54 | 1004.3 |
| 20260505064005 | 58 | 171 | 16.5 | 23.5 | 0.01 | 0.00 | 0.00 | 54 | 1004.2 |
| 20260505063505 | 58 | 173 | 17.4 | 24.3 | 0.01 | 0.00 | 0.00 | 54 | 1004.1 |
| 20260505063006 | 58 | 171 | 19.1 | 26.9 | 0.00 | 0.00 | 0.00 | 53 | 1004.1 |
| 20260505062506 | 57 | 168 | 17.4 | 22.6 | 0.00 | 0.00 | 0.00 | 53 | 1004.1 |
| 20260505062006 | 57 | 172 | 17.4 | 24.3 | 0.00 | 0.00 | 0.00 | 54 | 1004.2 |
| 20260505061505 | 57 | 173 | 14.8 | 21.7 | 0.00 | 0.00 | 0.00 | 55 | 1004.3 |
| 20260505061005 | 57 | 173 | 16.5 | 23.5 | 0.00 | 0.00 | 0.00 | 56 | 1004.4 |
| 20260505060506 | 57 | 171 | 13.0 | 20.0 | 0.00 | 0.00 | 0.00 | 57 | 1004.3 |
| 20260505060005 | 57 | 169 | 13.9 | 23.5 | 0.00 | 0.00 | 0.00 | 57 | 1004.5 |
| 20260505055505 | 57 | 173 | 13.9 | 20.9 | 0.01 | 0.00 | 0.00 | 58 | 1004.5 |
| 20260505055005 | 57 | 174 | 17.4 | 23.5 | 0.01 | 0.00 | 0.00 | 58 | 1004.5 |
| 20260505054505 | 57 | 175 | 15.6 | 23.5 | 0.01 | 0.00 | 0.00 | 59 | 1004.5 |
| 20260505054006 | 57 | 174 | 20.0 | 27.8 | 0.01 | 0.00 | 0.00 | 59 | 1004.3 |
| 20260505053506 | 57 | 172 | 22.6 | 29.5 | 0.01 | 0.00 | 0.00 | 59 | 1004.3 |
| 20260505053005 | 57 | 172 | 21.7 | 29.5 | 0.01 | 0.00 | 0.00 | 59 | 1004.3 |
| 20260505052506 | 57 | 169 | 18.2 | 28.7 | 0.01 | 0.00 | 0.00 | 60 | 1004.2 |
| 20260505052005 | 57 | 171 | 20.9 | 28.7 | 0.04 | 0.00 | 0.00 | 60 | 1004.1 |
| 20260505051505 | 57 | 175 | 22.6 | 29.5 | 0.07 | 0.00 | 0.00 | 59 | 1004.1 |
| 20260505051005 | 58 | 176 | 23.5 | 30.4 | 0.06 | 0.00 | 0.00 | 58 | 1004.0 |
| 20260505050505 | 58 | 177 | 19.1 | 28.7 | 0.05 | 0.00 | 0.00 | 57 | 1003.7 |
| 20260505041505 | 61 | 148 | 8.7 | 13.9 | 0.00 | 0.00 | 0.00 | 46 | 1002.6 |
| 20260505041005 | 61 | 148 | 9.6 | 13.0 | 0.00 | 0.00 | 0.00 | 46 | 1002.4 |
| 20260505040506 | 61 | 150 | 11.3 | 18.2 | 0.00 | 0.00 | 0.00 | 45 | 1002.3 |
| 20260505040006 | 61 | 149 | 9.6 | 15.6 | 0.00 | 0.00 | 0.00 | 46 | 1002.3 |
| 20260505035505 | 62 | 148 | 8.7 | 13.0 | 0.00 | 0.00 | 0.00 | 45 | 1002.2 |
| 20260505035005 | 62 | 150 | 12.2 | 17.4 | 0.00 | 0.00 | 0.00 | 45 | 1002.0 |
| 20260505034505 | 62 | 152 | 13.9 | 19.1 | 0.00 | 0.00 | 0.00 | 45 | 1001.9 |
| 20260505034005 | 62 | 148 | 10.4 | 17.4 | 0.00 | 0.00 | 0.00 | 44 | 1002.0 |
| 20260505033505 | 62 | 152 | 15.6 | 21.7 | 0.00 | 0.00 | 0.00 | 43 | 1001.7 |
| 20260505033005 | 62 | 150 | 13.9 | 20.0 | 0.00 | 0.00 | 0.00 | 44 | 1001.6 |
| 20260505032505 | 62 | 151 | 15.6 | 21.7 | 0.00 | 0.00 | 0.00 | 44 | 1001.4 |
| 20260505032006 | 63 | 149 | 14.8 | 23.5 | 0.00 | 0.00 | 0.00 | 43 | 1001.2 |
| 20260505031506 | 63 | 150 | 13.0 | 20.0 | 0.00 | 0.00 | 0.00 | 41 | 1001.2 |
| 20260505031006 | 63 | 149 | 14.8 | 18.2 | 0.00 | 0.00 | 0.00 | 42 | 1001.0 |
| 20260505030505 | 64 | 149 | 13.0 | 16.5 | 0.00 | 0.00 | 0.00 | 41 | 1000.9 |
| 20260505030005 | 65 | 150 | 10.4 | 14.8 | 0.00 | 0.00 | 0.00 | 39 | 1000.7 |
| 20260505025506 | 65 | 148 | 9.6 | 17.4 | 0.00 | 0.00 | 0.00 | 38 | 1000.5 |
| 20260505025005 | 65 | 151 | 9.6 | 25.2 | 0.00 | 0.00 | 0.00 | 37 | 1000.4 |
| 20260505024505 | 65 | 150 | 8.7 | 12.2 | 0.00 | 0.00 | 0.00 | 36 | 1000.4 |
| 20260505024005 | 64 | 148 | 7.8 | 13.0 | 0.00 | 0.00 | 0.00 | 36 | 1000.5 |
| 20260505023505 | 64 | 149 | 8.7 | 14.8 | 0.00 | 0.00 | 0.00 | 39 | 1000.5 |
| 20260505023006 | 65 | 144 | 6.1 | 9.6 | 0.00 | 0.00 | 0.00 | 39 | 1000.2 |
| 20260505022506 | 66 | 142 | 4.3 | 7.0 | 0.00 | 0.00 | 0.00 | 37 | 999.9 |
| 20260505022005 | 67 | 143 | 3.5 | 5.2 | 0.00 | 0.00 | 0.00 | 35 | 999.6 |
| 20260505021505 | 67 | 154 | 4.3 | 6.1 | 0.00 | 0.00 | 0.00 | 34 | 999.4 |
| 20260505021005 | 68 | 157 | 3.5 | 6.1 | 0.00 | 0.00 | 0.00 | 33 | 999.1 |
| 20260505020505 | 68 | 158 | 4.3 | 8.7 | 0.00 | 0.00 | 0.00 | 32 | 999.0 |
| 20260505020005 | 68 | 169 | 6.1 | 7.8 | 0.00 | 0.00 | 0.00 | 31 | 998.8 |
| 20260505015505 | 69 | 163 | 6.1 | 8.7 | 0.00 | 0.00 | 0.00 | 31 | 998.8 |
| 20260505015005 | 69 | 170 | 7.0 | 10.4 | 0.00 | 0.00 | 0.00 | 31 | 998.7 |
| 20260505014506 | 69 | 171 | 6.1 | 12.2 | 0.00 | 0.00 | 0.00 | 31 | 998.8 |
| 20260505014006 | 69 | 164 | 6.1 | 8.7 | 0.00 | 0.00 | 0.00 | 31 | 998.8 |
| 20260505013506 | 69 | 155 | 6.1 | 10.4 | 0.00 | 0.00 | 0.00 | 31 | 998.8 |
| 20260505013006 | 69 | 148 | 5.2 | 14.8 | 0.00 | 0.00 | 0.00 | 31 | 998.7 |
| 20260505012505 | 69 | 146 | 4.3 | 18.2 | 0.00 | 0.00 | 0.00 | 30 | 998.8 |
| 20260505012005 | 69 | 150 | 4.3 | 18.2 | 0.00 | 0.00 | 0.00 | 30 | 998.9 |
| 20260505011506 | 69 | 168 | 3.5 | 7.0 | 0.00 | 0.00 | 0.00 | 30 | 998.9 |
| 20260505011005 | 69 | 168 | 3.5 | 6.1 | 0.00 | 0.00 | 0.00 | 29 | 998.9 |
| 20260505010505 | 69 | 164 | 5.2 | 7.8 | 0.00 | 0.00 | 0.00 | 28 | 998.9 |
| 20260505010005 | 69 | 148 | 3.5 | 7.0 | 0.00 | 0.00 | 0.00 | 29 | 999.0 |
| 20260505005506 | 69 | 144 | 4.3 | 11.3 | 0.00 | 0.00 | 0.00 | 29 | 999.1 |
| 20260505005006 | 69 | 142 | 5.2 | 19.1 | 0.00 | 0.00 | 0.00 | 30 | 999.2 |
| 20260505004506 | 69 | 135 | 7.0 | 23.5 | 0.00 | 0.00 | 0.00 | 31 | 999.2 |
| 20260505004005 | 69 | 134 | 11.3 | 22.6 | 0.00 | 0.00 | 0.00 | 30 | 999.3 |
| 20260505003505 | 69 | 132 | 8.7 | 22.6 | 0.00 | 0.00 | 0.00 | 32 | 999.3 |
| 20260505003005 | 69 | 122 | 12.2 | 26.9 | 0.00 | 0.00 | 0.00 | 32 | 999.4 |
| 20260505002505 | 69 | 122 | 7.8 | 19.1 | 0.00 | 0.00 | 0.00 | 32 | 999.4 |
| 20260505002005 | 68 | 129 | 5.2 | 13.0 | 0.00 | 0.00 | 0.00 | 31 | 999.4 |
| 20260505001505 | 68 | 150 | 1.7 | 5.2 | 0.00 | 0.00 | 0.00 | 31 | 999.5 |
| 20260505001005 | 68 | 142 | 3.5 | 11.3 | 0.00 | 0.00 | 0.00 | 31 | 999.6 |
| 20260505000506 | 68 | 147 | 2.6 | 8.7 | 0.00 | 0.00 | 0.00 | 32 | 999.7 |
| 20260505000006 | 68 | 193 | 3.5 | 5.2 | 0.00 | 0.00 | 0.00 | 33 | 999.9 |
| 20260504235506 | 68 | 229 | 4.3 | 7.8 | 0.00 | 0.00 | 0.00 | 34 | 1000.1 |
| 20260504235005 | 68 | 234 | 6.1 | 11.3 | 0.00 | 0.00 | 0.00 | 34 | 1000.1 |
| 20260504234505 | 68 | 231 | 6.1 | 10.4 | 0.00 | 0.00 | 0.00 | 34 | 1000.1 |
| 20260504234005 | 68 | 244 | 7.0 | 12.2 | 0.00 | 0.00 | 0.00 | 33 | 1000.1 |
| 20260504233505 | 68 | 214 | 6.1 | 10.4 | 0.00 | 0.00 | 0.00 | 33 | 1000.1 |
| 20260504233005 | 68 | 213 | 6.1 | 20.9 | 0.00 | 0.00 | 0.00 | 33 | 1000.1 |
| 20260504232505 | 68 | 236 | 6.1 | 10.4 | 0.00 | 0.00 | 0.00 | 33 | 1000.1 |
| 20260504232007 | 69 | 215 | 6.1 | 11.3 | 0.00 | 0.00 | 0.00 | 33 | 1000.0 |
| 20260504231506 | 69 | 225 | 7.8 | 11.3 | 0.00 | 0.00 | 0.00 | 33 | 999.9 |
| 20260504231006 | 69 | 233 | 7.0 | 11.3 | 0.00 | 0.00 | 0.00 | 33 | 999.8 |
| 20260504230505 | 70 | 216 | 5.2 | 12.2 | 0.00 | 0.00 | 0.00 | 32 | 999.8 |
| 20260504230005 | 70 | 207 | 7.8 | 12.2 | 0.00 | 0.00 | 0.00 | 32 | 999.9 |
| 20260504225505 | 70 | 221 | 8.7 | 13.0 | 0.00 | 0.00 | 0.00 | 32 | 1000.1 |
| 20260504225005 | 69 | 222 | 7.8 | 13.9 | 0.00 | 0.00 | 0.00 | 31 | 1000.2 |
| 20260504224505 | 69 | 206 | 9.6 | 14.8 | 0.00 | 0.00 | 0.00 | 31 | 1000.2 |
| 20260504224005 | 69 | 213 | 7.8 | 11.3 | 0.00 | 0.00 | 0.00 | 31 | 1000.3 |
| 20260504223505 | 70 | 217 | 7.8 | 12.2 | 0.00 | 0.00 | 0.00 | 32 | 1000.3 |
| 20260504223006 | 69 | 179 | 8.7 | 12.2 | 0.00 | 0.00 | 0.00 | 32 | 1000.4 |
| 20260504222506 | 69 | 182 | 9.6 | 14.8 | 0.00 | 0.00 | 0.00 | 31 | 1000.3 |
| 20260504222006 | 69 | 159 | 8.7 | 12.2 | 0.00 | 0.00 | 0.00 | 30 | 1000.4 |
| 20260504221505 | 69 | 151 | 8.7 | 13.0 | 0.00 | 0.00 | 0.00 | 30 | 1000.5 |
| 20260504221005 | 69 | 167 | 8.7 | 12.2 | 0.00 | 0.00 | 0.00 | 30 | 1000.5 |
| 20260504220505 | 69 | 169 | 9.6 | 13.0 | 0.00 | 0.00 | 0.00 | 31 | 1000.7 |
| 20260504220005 | 69 | 167 | 9.6 | 15.6 | 0.00 | 0.00 | 0.00 | 31 | 1000.8 |
| 20260504215505 | 68 | 160 | 9.6 | 13.9 | 0.00 | 0.00 | 0.00 | 32 | 1001.1 |
| 20260504215006 | 68 | 167 | 12.2 | 20.9 | 0.00 | 0.00 | 0.00 | 33 | 1001.5 |
| 20260504214506 | 68 | 279 | 10.4 | 29.5 | 0.00 | 0.00 | 0.00 | 34 | 1001.8 |
| 20260504214006 | 68 | 311 | 10.4 | 23.5 | 0.00 | 0.00 | 0.00 | 34 | 1001.9 |
| 20260504213505 | 67 | 354 | 10.4 | 28.7 | 0.00 | 0.00 | 0.00 | 35 | 1001.9 |
| 20260504213005 | 68 | 172 | 10.4 | 32.2 | 0.00 | 0.00 | 0.00 | 36 | 1002.2 |
| 20260504212505 | 67 | 318 | 16.5 | 33.9 | 0.00 | 0.00 | 0.00 | 36 | 1002.2 |
| 20260504212005 | 67 | 313 | 12.2 | 29.5 | 0.00 | 0.00 | 0.00 | 34 | 1002.1 |
| 20260504211505 | 67 | 303 | 5.2 | 12.2 | 0.00 | 0.00 | 0.00 | 32 | 1002.3 |
| 20260504211005 | 67 | 284 | 10.4 | 13.9 | 0.00 | 0.00 | 0.00 | 32 | 1002.3 |
| 20260504210505 | 67 | 270 | 10.4 | 14.8 | 0.00 | 0.00 | 0.00 | 32 | 1002.3 |
| 20260504210006 | 66 | 285 | 11.3 | 17.4 | 0.00 | 0.00 | 0.00 | 31 | 1002.2 |
| 20260504205506 | 66 | 272 | 12.2 | 18.2 | 0.00 | 0.00 | 0.00 | 32 | 1002.1 |
| 20260504205006 | 66 | 286 | 11.3 | 16.5 | 0.00 | 0.00 | 0.00 | 34 | 1002.1 |
| 20260504204505 | 66 | 283 | 12.2 | 16.5 | 0.00 | 0.00 | 0.00 | 34 | 1002.3 |
| 20260504204005 | 65 | 281 | 11.3 | 17.4 | 0.00 | 0.00 | 0.00 | 35 | 1002.4 |
| 20260504203505 | 65 | 288 | 7.8 | 13.0 | 0.00 | 0.00 | 0.00 | 36 | 1002.5 |
| 20260504203005 | 65 | 278 | 10.4 | 13.9 | 0.00 | 0.00 | 0.00 | 38 | 1002.7 |
| 20260504202505 | 65 | 274 | 12.2 | 15.6 | 0.00 | 0.00 | 0.00 | 37 | 1002.8 |
| 20260504202005 | 64 | 295 | 11.3 | 14.8 | 0.00 | 0.00 | 0.00 | 41 | 1002.8 |
| 20260504201506 | 65 | 304 | 7.8 | 13.0 | 0.00 | 0.00 | 0.00 | 42 | 1002.7 |
| 20260504201006 | 66 | 303 | 6.1 | 11.3 | 0.00 | 0.00 | 0.00 | 40 | 1002.2 |